Regional Weather Roundup
Issued by NWS

Home | Current Version | Previous Version | Text Only | Print | Product List | Glossary On
Versions: 1 2 3 4 5 6 7 8 9 10 11 12 13 14 15 16 17 18 19 20 21 22 23 24 25 26 27 28 29 30 31 32 33 34 35 36 37 38 39 40 41 42 43 44 45 46 47 48 49 50
000
ASUS43 KLSX 271410
RWRMO

WEATHER SUMMARY FOR MISSOURI
NATIONAL WEATHER SERVICE SPRINGFIELD MO
900 AM CDT SAT AUG 27 2016

NOTE: "FAIR" INDICATES FEW OR NO CLOUDS BELOW 12,000 FEET WITH NO
       SIGNIFICANT WEATHER AND/OR OBSTRUCTIONS TO VISIBILITY.
       CURRENT SKY AND/OR WEATHER CONDITIONS ARE NOT AVAILABLE FOR
       CHILLICOTHE AND FARMINGTON.

MOZ001>031-035>038-043-044-053-054-271500-
...NORTHERN AND WESTERN MISSOURI...

CITY           SKY/WX    TMP DP  RH WIND       PRES   REMARKS
KANSAS CTY INT PTSUNNY   70  65  84 S5        30.03F
KANSAS C DTWN  MOSUNNY   76  67  73 SE6       30.02F
LEE`S SUMMIT   MOSUNNY   73  69  87 S6        30.05F
ST JOSEPH      MOSUNNY   70  68  93 S6        30.01F
KIRKSVILLE     SUNNY     72  68  87 SW7       30.07S

$$
MOZ066>068-077>081-088>096-101>105-271500-
...SOUTHWEST MISSOURI...

CITY           SKY/WX    TMP DP  RH WIND       PRES   REMARKS
SPRINGFIELD    CLOUDY    77  71  82 S6        30.10R
JOPLIN         SUNNY     76  71  85 S8        30.09R
BRANSON        MOSUNNY   75  72  88 CALM      30.11S

$$
MOZ032>034-039>042-045>050-055>058-069>072-271500-
...CENTRAL MISSOURI...

CITY           SKY/WX    TMP DP  RH WIND       PRES   REMARKS
COLUMBIA       SUNNY     76  73  91 S8        30.08S
JEFFERSON CITY MOSUNNY   76  72  87 CALM      30.07S
ROLLA          CLOUDY    74  70  87 S7        30.09S
SEDALIA        SUNNY     78  73  84 SW7       30.08R
WHITEMAN AFB   PTSUNNY   75  75 100 W8        30.06R
OSAGE BEACH    CLOUDY    75  73  94 S5        30.09S

$$
MOZ051-052-059>065-271500-
...EAST CENTRAL MISSOURI...

CITY           SKY/WX    TMP DP  RH WIND       PRES   REMARKS
ST LOUIS INTL  CLOUDY    81  68  64 SW10      30.09R
SPIRIT OF STL  CLOUDY    78  71  79 SW7       30.07R
ST CHARLES     CLOUDY    78  73  84 SW5       30.06S

$$
MOZ072>076-082>087-097>100-106>115-271500-
...SOUTH CENTRAL AND SOUTHEAST MISSOURI...

CITY           SKY/WX    TMP DP  RH WIND       PRES   REMARKS
CAPE GIRARDEAU CLOUDY    74  71  91 SE3       30.09R
FARMINGTON     CLOUDY    73  70  90 CALM      30.11R
POPLAR BLUFF   MOSUNNY   76  71  85 CALM      30.08R
WEST PLAINS    MOSUNNY   75  70  84 W3        30.13R

$$



USA.gov is the U.S. government's official web portal to all federal, state and local government web resources and services.